Wind_Speed
52 54 55 56 58 59 61 62 63 63 64 66 67 67 67 68 68 68 67 67 66 65 64 64 64 64 63 63 62 62 62 62 62 62 62 63 64 65
55 56 57 58 59 61 61 62 63 63 62 63 64 65 65 66 66 66 65 64 63 63 63 63 62 61 60 59 58 58 58 58 58 58 58 59 60 61
58 58 59 59 59 60 61 61 61 61 60 59 61 62 62 62 62 61 61 61 60 59 58 58 56 55 55 54 53 53 52 52 52 52 52 52 53 55
59 59 58 58 58 58 58 58 58 58 57 57 57 58 58 58 58 57 56 55 53 52 50 49 48 47 47 46 46 45 45 46 46 46 47 47 48 48
58 57 57 57 56 56 56 56 55 55 56 55 55 55 54 54 53 51 49 47 46 44 43 41 41 40 40 40 40 40 40 41 41 41 42 42 42 42
56 56 55 55 54 54 54 54 54 54 53 53 52 50 49 47 46 44 41 40 39 38 37 37 36 36 36 36 36 36 37 37 37 37 38 38 39 39
54 53 53 52 52 52 52 52 52 51 50 49 46 44 42 40 38 37 36 35 34 34 34 34 34 33 32 32 32 33 33 33 34 35 35 36 37 38
52 51 51 51 51 50 50 49 48 46 44 42 39 37 35 34 33 33 32 31 30 31 31 31 31 30 30 30 30 30 30 30 31 31 32 33 34 35
50 49 49 49 48 47 45 43 41 39 37 34 31 29 28 28 28 28 28 28 29 29 28 28 28 28 28 28 28 28 28 28 28 29 30 30 31 32
48 47 46 44 43 40 37 35 33 31 29 26 25 25 25 25 26 26 26 26 26 26 26 25 25 24 25 25 25 24 24 25 25 26 26 27 27 28
44 41 38 37 34 31 29 27 26 25 24 22 22 22 22 23 24 24 25 25 24 24 24 24 23 22 22 22 21 21 21 21 22 22 22 23 24 24
36 33 30 28 25 23 22 21 20 19 19 20 20 20 21 22 23 23 23 23 22 22 22 22 21 20 20 21 20 19 18 18 18 18 19 20 20 21
27 24 21 19 18 17 17 16 15 16 17 17 18 19 20 21 22 22 22 22 21 21 21 20 20 19 18 17 16 15 14 14 13 14 15 16 17 18
18 16 14 13 13 13 12 13 13 14 15 16 17 18 19 20 21 21 21 21 20 20 20 19 18 17 16 14 13 12 11 10 10 11 11 11 13 14
11 9 9 9 9 10 10 11 12 13 14 15 17 18 19 19 20 20 20 20 19 19 19 18 17 16 15 15 13 12 11 10 9 9 8 8 9 10
6 6 6 7 8 9 9 10 11 13 14 15 17 17 18 19 20 20 20 19 19 19 18 18 17 17 16 16 15 14 13 11 10 8 6 5 4 5
4 5 6 7 8 9 10 11 12 13 14 15 16 17 18 19 19 19 20 20 19 19 19 19 18 18 18 18 17 16 15 13 11 9 7 5 2 1
6 7 7 8 9 10 11 12 13 14 15 15 16 17 18 19 19 19 19 20 20 20 20 20 20 19 19 19 19 17 16 15 13 12 10 7 5 4
8 8 9 9 10 11 12 13 14 15 16 16 16 17 18 18 19 19 19 19 20 20 20 20 21 21 21 20 19 19 18 17 15 14 13 11 9 8
9 10 10 11 11 12 13 14 15 15 16 16 17 17 17 18 18 19 19 19 20 20 20 20 21 21 21 21 21 20 20 19 18 17 16 15 14 12
11 11 12 12 12 13 14 15 15 16 16 17 18 18 18 18 18 18 19 19 19 20 20 20 20 21 21 22 22 22 21 21 20 19 19 18 18 17
12 12 12 12 13 13 14 15 15 16 16 17 18 18 18 18 18 18 19 19 19 19 19 19 20 21 21 21 22 22 22 22 21 20 20 20 20 20
13 13 13 13 13 13 14 14 15 16 16 17 18 18 18 18 18 18 18 18 19 19 19 19 19 20 21 21 22 23 23 23 22 21 20 20 20 20
Wind_Direction
294 293 292 291 291 290 290 290 289 288 287 287 287 287 286 286 286 286 286 285 285 284 283 282 281 280 279 277 276 274 272 270 267 265 262 260 259 257
294 294 293 292 292 291 290 290 290 290 289 288 288 287 287 287 286 286 286 286 286 285 284 283 282 280 279 277 276 274 272 269 267 265 263 260 258 257
294 294 293 293 292 292 292 292 292 291 291 290 290 289 289 288 288 288 287 287 287 286 286 284 283 281 279 278 277 275 273 270 268 265 263 261 259 257
294 294 294 294 294 293 293 293 293 293 293 292 292 291 290 290 290 289 289 289 289 288 287 286 284 283 281 279 277 276 274 272 268 265 263 260 259 257
294 295 295 294 294 294 294 294 294 294 294 294 294 293 292 292 292 291 291 291 290 290 288 287 286 284 282 280 278 277 275 273 270 267 263 260 257 255
295 295 295 295 295 295 295 295 295 295 296 296 296 295 295 294 294 294 293 293 293 292 291 290 288 286 284 281 279 277 276 274 271 268 264 261 258 255
295 295 295 295 296 296 296 296 296 297 298 298 298 297 297 297 297 297 297 297 296 295 295 294 292 290 287 285 283 280 276 274 271 268 265 261 258 255
295 295 296 296 296 296 296 297 298 298 299 300 300 300 300 300 301 301 301 301 301 299 299 298 297 294 291 288 285 283 279 275 271 268 265 262 258 255
296 296 296 297 297 297 298 298 299 300 302 303 304 305 305 306 307 308 308 308 307 306 304 303 301 298 295 293 289 285 281 277 273 269 266 262 259 256
296 297 298 298 298 299 300 300 302 304 307 309 310 311 312 314 315 316 315 315 314 313 313 311 308 305 302 299 295 291 285 279 275 271 267 262 258 256
297 298 299 299 300 301 302 303 306 309 312 314 316 318 319 321 321 321 320 321 320 319 318 317 314 311 308 305 300 295 290 285 279 272 268 263 259 255
298 299 300 301 302 304 305 308 311 315 318 321 323 325 327 329 329 328 327 327 325 324 324 323 320 317 313 310 306 301 296 288 282 275 269 264 260 256
299 300 302 303 305 307 311 315 319 324 327 330 334 335 336 337 337 336 335 335 335 334 332 331 330 328 325 321 316 312 306 299 291 284 275 268 261 256
301 304 306 309 313 317 322 327 331 336 340 344 346 347 346 345 345 345 345 345 346 345 345 345 345 344 344 342 337 332 325 316 306 297 288 273 261 254
309 312 317 325 331 335 339 342 346 351 355 357 358 358 357 357 357 357 357 358 358 359 360 1 2 3 3 3 360 353 347 340 329 317 304 286 266 254
328 336 344 352 356 358 359 2 4 6 8 8 7 7 8 7 7 7 9 10 11 13 14 14 13 13 13 12 11 9 6 2 358 351 337 318 287 253
13 16 18 18 18 17 18 16 15 15 15 15 14 14 15 16 16 18 19 20 20 21 21 22 22 23 23 21 20 19 18 17 15 11 9 7 358 252
47 43 42 40 38 36 32 29 26 25 24 23 23 22 21 21 22 23 24 25 26 26 27 28 29 29 28 27 27 26 27 28 29 32 39 44 53 74
62 59 57 54 50 46 42 39 37 34 32 31 29 26 25 25 26 26 27 27 28 28 30 31 32 31 30 30 31 32 33 34 39 43 48 53 61 76
71 69 67 63 59 53 50 47 44 41 38 35 32 29 27 26 26 27 27 28 29 30 32 34 34 34 36 36 37 38 38 42 47 51 55 60 68 78
75 74 73 69 65 60 55 51 47 44 41 38 35 32 30 28 28 28 29 29 30 32 34 35 36 37 39 40 40 41 43 47 51 57 61 65 71 80
78 77 76 72 69 65 58 52 48 44 41 38 36 33 31 30 30 30 30 31 32 33 34 36 38 39 42 44 45 46 48 51 54 60 64 69 75 82
81 79 76 72 68 63 57 52 48 43 40 37 35 32 31 30 30 30 31 32 34 35 36 37 39 41 43 46 48 49 51 53 57 62 67 73 78 83
Height
5755 5751 5746 5740 5735 5730 5724 5719 5715 5711 5706 5698 5691 5684 5678 5673 5667 5662 5658 5653 5648 5644 5640 5636 5633 5630 5627 5624 5621 5619 5618 5618 5618 5619 5621 5623 5626 5630
5741 5736 5731 5725 5719 5714 5708 5702 5696 5692 5688 5682 5674 5667 5661 5655 5650 5644 5640 5635 5631 5626 5621 5617 5614 5610 5607 5605 5602 5600 5599 5599 5599 5600 5601 5603 5606 5610
5726 5721 5715 5710 5704 5698 5692 5686 5680 5674 5670 5665 5657 5651 5644 5638 5633 5627 5622 5618 5613 5608 5603 5599 5596 5592 5590 5587 5585 5583 5582 5581 5581 5582 5583 5585 5588 5591
5710 5705 5700 5694 5688 5682 5676 5670 5664 5658 5653 5648 5642 5635 5628 5622 5616 5611 5606 5601 5596 5592 5588 5583 5580 5577 5574 5571 5569 5568 5566 5566 5566 5566 5568 5570 5572 5575
5695 5690 5684 5679 5673 5667 5661 5655 5649 5643 5637 5632 5627 5620 5613 5607 5601 5596 5591 5586 5582 5578 5574 5570 5567 5563 5561 5558 5556 5555 5553 5553 5552 5552 5553 5555 5558 5560
5680 5675 5670 5664 5659 5653 5647 5641 5635 5629 5623 5617 5611 5605 5599 5593 5587 5583 5579 5574 5570 5566 5562 5558 5555 5552 5549 5547 5545 5543 5542 5540 5540 5540 5541 5542 5545 5547
5666 5661 5656 5650 5645 5639 5633 5627 5621 5615 5609 5603 5598 5592 5587 5581 5577 5572 5568 5564 5560 5555 5552 5548 5545 5541 5538 5536 5534 5532 5531 5529 5529 5528 5529 5530 5532 5535
5652 5647 5642 5637 5632 5626 5620 5614 5608 5603 5597 5592 5587 5582 5577 5572 5567 5563 5558 5555 5552 5547 5543 5539 5535 5532 5529 5526 5524 5522 5521 5519 5518 5518 5518 5519 5521 5523
5639 5634 5628 5623 5619 5613 5607 5602 5597 5591 5587 5582 5578 5573 5569 5565 5560 5556 5551 5547 5543 5538 5535 5531 5527 5523 5520 5517 5515 5513 5511 5510 5509 5508 5508 5509 5510 5512
5626 5621 5616 5611 5606 5602 5597 5592 5588 5583 5579 5575 5571 5567 5563 5558 5554 5550 5545 5541 5536 5531 5527 5524 5520 5516 5512 5509 5506 5504 5502 5501 5500 5499 5499 5499 5501 5502
5613 5609 5605 5600 5596 5592 5589 5585 5582 5578 5574 5570 5566 5562 5558 5554 5549 5545 5540 5536 5532 5526 5522 5517 5514 5510 5506 5502 5499 5497 5495 5493 5492 5491 5491 5491 5492 5494
5603 5599 5596 5592 5589 5586 5583 5580 5577 5574 5570 5567 5563 5559 5555 5550 5546 5541 5536 5531 5527 5522 5518 5513 5509 5505 5501 5497 5494 5491 5488 5487 5485 5484 5484 5484 5485 5486
5595 5592 5589 5587 5584 5582 5579 5577 5574 5571 5568 5564 5561 5556 5552 5548 5543 5538 5533 5528 5523 5518 5514 5509 5505 5500 5496 5493 5489 5486 5484 5482 5480 5479 5478 5478 5479 5480
5588 5587 5585 5583 5581 5579 5577 5575 5572 5569 5566 5562 5559 5555 5550 5546 5541 5536 5531 5526 5521 5516 5511 5506 5502 5498 5494 5490 5487 5484 5481 5479 5477 5475 5474 5473 5473 5474
5584 5583 5582 5581 5579 5577 5575 5573 5571 5568 5565 5561 5558 5554 5550 5545 5540 5535 5530 5525 5520 5515 5511 5506 5502 5498 5494 5490 5487 5483 5480 5478 5475 5473 5471 5470 5470 5470
5582 5582 5581 5580 5578 5577 5575 5572 5570 5567 5564 5561 5558 5554 5550 5545 5541 5536 5531 5526 5522 5517 5512 5508 5503 5499 5495 5491 5487 5484 5480 5477 5474 5472 5470 5468 5468 5468
5582 5582 5581 5580 5578 5577 5575 5573 5570 5568 5565 5562 5558 5555 5551 5547 5542 5538 5533 5529 5524 5519 5515 5510 5506 5501 5497 5493 5489 5485 5482 5478 5475 5472 5470 5468 5468 5467
5583 5582 5582 5581 5579 5578 5576 5574 5572 5569 5566 5563 5560 5557 5553 5549 5544 5540 5536 5531 5527 5522 5518 5514 5509 5505 5501 5497 5493 5488 5484 5481 5477 5474 5472 5470 5469 5469
5584 5584 5583 5582 5581 5580 5578 5576 5573 5571 5568 5565 5562 5559 5555 5551 5547 5543 5539 5534 5530 5526 5522 5517 5513 5509 5504 5500 5496 5492 5488 5484 5481 5478 5475 5473 5472 5471
5586 5586 5585 5584 5583 5582 5580 5578 5576 5573 5571 5568 5564 5561 5558 5554 5550 5546 5542 5538 5534 5529 5525 5521 5517 5513 5509 5505 5501 5496 5492 5488 5485 5482 5480 5478 5476 5476
5589 5588 5588 5587 5586 5585 5583 5581 5579 5576 5574 5570 5567 5564 5560 5557 5553 5549 5545 5541 5537 5533 5529 5526 5522 5518 5513 5510 5506 5502 5498 5494 5491 5488 5486 5484 5483 5482
5592 5592 5591 5590 5589 5588 5586 5585 5582 5580 5577 5574 5570 5567 5564 5560 5556 5553 5549 5545 5541 5537 5534 5530 5526 5522 5519 5515 5512 5508 5504 5501 5498 5495 5493 5491 5490 5489
5596 5595 5595 5594 5593 5591 5590 5588 5586 5583 5580 5577 5574 5571 5567 5564 5560 5556 5552 5549 5545 5541 5538 5534 5531 5528 5524 5521 5517 5514 5511 5508 5505 5503 5501 5499 5498 5497